North Conway, NH

4:58 PM EDT on March 23, 2017 (GMT -0400)
North Conway

Weather History for KCWN - August, 2014

Change the Weather History Date:

Saturday, August 9, 2014

  Actual Average (KIZG) Record (KIZG)
Temperature  
Mean Temperature 69 °F -  
Max Temperature 77 °F 80 °F 100 °F (2001)
Min Temperature 61 °F 54 °F 43 °F (2002)
Cooling Degree Days 4    
Growing Degree Days 19 (Base 50)    
Moisture  
Dew Point 43 °F    
Average Humidity 39    
Maximum Humidity 72    
Minimum Humidity 26    
Precipitation  
Precipitation 0.00 in - - ()
Sea Level Pressure  
Sea Level Pressure 30.05 in    
Wind  
Wind Speed 7 mph (NW)    
Max Wind Speed 16 mph    
Max Gust Speed 26 mph    
Visibility 10 miles    
Events Rain , Thunderstorm    
Averages and records for this station are not official NWS values.
T = Trace of Precipitation, MM = Missing Value Source: NWS Daily Summary

Daily Weather History Graph

Daily Weather History Graph

Search for Another Location

Airport or City:

Trip Planner

Search our weather history database for the weather conditions in past years. The results will help you decide how hot, cold, wet, or windy it might be!

Date:

Astronomy

Aug. 09, 2014 Rise Set
Actual Time 5:41 AM EDT 7:57 PM EDT
Civil Twilight 5:09 AM EDT 8:29 PM EDT
Nautical Twilight 4:29 AM EDT 9:09 PM EDT
Astronomical Twilight 3:45 AM EDT 9:53 PM EDT
Moon 6:56 PM EDT (8/9) 4:18 AM EDT (8/9)
Length of Visible Light 15h 20m
Length of Day
14h 16m
Waxing Gibbous, 98% of the Moon is Illuminated
Aug 9
Waxing Gibbous
Aug 10
Full
Aug 17
Last Quarter
Aug 25
New
Sep 2
First Quarter

Hourly Weather History & Observations

Time (EDT) Temp. Dew Point Humidity Pressure Visibility Wind Dir Wind Speed Gust Speed Precip Events Conditions
12:56 AM 64.6 °F 45.9 °F 51% 29.98 in 10.0 mi SSW 3.5 mph - N/A   Mostly Cloudy
1:56 AM 64.8 °F 50.0 °F 59% 29.98 in 10.0 mi SW 9.2 mph - N/A   Mostly Cloudy
2:56 AM 63.3 °F 53.8 °F 71% 29.99 in 10.0 mi WSW 2.3 mph - N/A   Mostly Cloudy
3:56 AM 61.9 °F 52.0 °F 70% 29.99 in 10.0 mi WNW 3.5 mph - N/A   Mostly Cloudy
4:56 AM 62.8 °F 53.8 °F 72% 29.97 in 10.0 mi Variable 2.3 mph - N/A   Partly Cloudy
5:56 AM 62.4 °F 45.7 °F 54% 29.95 in 10.0 mi WNW 8.1 mph - N/A   Scattered Clouds
6:56 AM 63.0 °F 40.6 °F 44% 29.95 in 10.0 mi NW 4.6 mph - N/A   Scattered Clouds
7:56 AM 62.2 °F 40.5 °F 45% 29.98 in 10.0 mi Variable 2.3 mph - N/A   Partly Cloudy
8:56 AM 66.9 °F 33.4 °F 29% 29.95 in 10.0 mi West 8.1 mph - N/A   Clear
9:56 AM 72.5 °F 37.8 °F 28% 29.94 in 10.0 mi North 8.1 mph - N/A   Clear
10:56 AM 74.7 °F 44.8 °F 34% 29.96 in 10.0 mi Variable 5.8 mph - N/A   Clear
11:56 AM 73.9 °F 46.8 °F 38% 29.97 in 10.0 mi SE 5.8 mph - N/A   Clear
12:56 PM 76.5 °F 44.4 °F 32% 29.97 in 10.0 mi SE 9.2 mph 12.7 mph N/A   Clear
1:56 PM 76.5 °F 39.9 °F 27% 29.97 in 10.0 mi SE 8.1 mph 15.0 mph N/A   Scattered Clouds
2:56 PM 76.3 °F 45.7 °F 34% 29.97 in 10.0 mi ESE 5.8 mph 13.8 mph N/A   Mostly Cloudy
3:33 PM 75.2 °F 42.8 °F 31% 30.24 in 10.0 mi NNW 9.2 mph - N/A Rain Light Rain
3:56 PM 75.0 °F 40.8 °F 29% 29.98 in 10.0 mi Variable 3.5 mph - N/A Rain Light Rain Showers
3:59 PM 77.0 °F 39.2 °F 26% 30.24 in 10.0 mi Variable 3.5 mph - N/A   Mostly Cloudy
4:56 PM 77.4 °F 42.1 °F 28% 29.97 in 10.0 mi NE 9.2 mph 13.8 mph N/A   Partly Cloudy
5:40 PM 71.6 °F 46.4 °F 41% 30.25 in 10.0 mi NW 10.4 mph - N/A Rain Light Rain Showers
5:47 PM 71.6 °F 46.4 °F 41% 30.25 in 10.0 mi NW 15.0 mph - N/A Rain , Thunderstorm Light Thunderstorms and Rain
5:56 PM 71.8 °F 40.1 °F 32% 29.99 in 10.0 mi NW 16.1 mph - N/A Rain , Thunderstorm Light Thunderstorms and Rain
6:01 PM 71.6 °F 41.0 °F 33% 30.25 in 10.0 mi NNW 9.2 mph 19.6 mph N/A Rain Light Rain Showers
6:17 PM 73.4 °F 39.2 °F 29% 30.25 in 10.0 mi NNW 10.4 mph - N/A   Mostly Cloudy
6:55 PM 71.6 °F 41.0 °F 33% 30.25 in 10.0 mi NW 13.8 mph 26.5 mph N/A Rain Light Rain Showers
6:56 PM 70.9 °F 43.3 °F 37% 29.99 in 10.0 mi NW 13.8 mph 26.5 mph N/A Rain Light Rain Showers
7:17 PM 73.4 °F 39.2 °F 29% 30.25 in 10.0 mi NNW 10.4 mph - N/A   Mostly Cloudy
7:56 PM 72.9 °F 41.2 °F 32% 29.98 in 10.0 mi North 11.5 mph 17.3 mph N/A   Mostly Cloudy
8:56 PM 70.5 °F 40.6 °F 34% 30.01 in 10.0 mi NW 15.0 mph 20.7 mph N/A   Mostly Cloudy
9:56 PM 68.5 °F 41.7 °F 38% 30.02 in 10.0 mi NW 11.5 mph 19.6 mph N/A   Clear
10:56 PM 65.7 °F 43.0 °F 44% 30.03 in 10.0 mi North 11.5 mph - N/A   Clear
11:56 PM 69.3 °F 36.9 °F 30% 30.04 in 10.0 mi WNW 10.4 mph 19.6 mph N/A   Clear